TimeCST,TemperatureF,Dew PointF,Humidity,Sea Level PressureIn,VisibilityMPH,Wind Direction,Wind SpeedMPH,Gust SpeedMPH,PrecipitationIn,Events,Conditions,WindDirDegrees,DateUTC
12:53 AM,5.0,1.9,87,29.95,7.0,Calm,Calm,-,N/A,,Clear,0,2013-02-05 06:53:00
1:53 AM,3.9,-0.0,84,29.95,7.0,Calm,Calm,-,N/A,,Mostly Cloudy,0,2013-02-05 07:53:00
2:49 AM,10.4,6.8,85,29.87,1.8,Calm,Calm,-,0.00,Snow,Light Snow,0,2013-02-05 08:49:00
2:53 AM,10.0,7.0,87,29.91,1.2,Calm,Calm,-,0.00,Snow,Light Snow,0,2013-02-05 08:53:00
3:44 AM,12.2,8.6,85,29.82,1.0,Calm,Calm,-,0.01,Snow,Light Snow,0,2013-02-05 09:44:00
3:53 AM,12.0,9.0,88,29.86,1.2,Calm,Calm,-,0.02,Snow,Light Snow,0,2013-02-05 09:53:00
4:27 AM,15.8,12.2,86,29.84,1.5,WSW,3.5,-,0.00,Snow,Light Snow,250,2013-02-05 10:27:00
4:37 AM,15.8,12.2,86,29.82,3.0,SSW,5.8,-,0.00,Snow,Light Snow,210,2013-02-05 10:37:00
4:53 AM,16.0,12.9,88,29.86,8.0,WSW,4.6,-,0.00,,Overcast,240,2013-02-05 10:53:00
5:53 AM,19.0,14.0,81,29.83,10.0,SSW,6.9,-,N/A,,Unknown,210,2013-02-05 11:53:00
6:02 AM,19.4,14.0,80,29.79,10.0,SW,8.1,-,N/A,,Overcast,220,2013-02-05 12:02:00
6:31 AM,19.4,14.0,80,29.79,9.0,SSW,5.8,-,N/A,,Overcast,200,2013-02-05 12:31:00
6:53 AM,19.0,14.0,81,29.83,9.0,SSW,6.9,-,N/A,,Overcast,200,2013-02-05 12:53:00
7:53 AM,19.9,16.0,85,29.83,7.0,SSW,6.9,-,N/A,,Overcast,210,2013-02-05 13:53:00
8:53 AM,23.0,17.1,78,29.83,7.0,SW,9.2,-,N/A,,Overcast,230,2013-02-05 14:53:00
9:15 AM,23.0,17.6,80,29.78,5.0,SW,6.9,-,0.00,Snow,Light Snow,220,2013-02-05 15:15:00
9:19 AM,23.0,17.6,80,29.77,1.8,SW,8.1,-,0.00,Snow,Light Snow,230,2013-02-05 15:19:00
9:24 AM,23.0,17.6,80,29.77,0.8,SW,8.1,-,0.00,Snow,Light Snow,220,2013-02-05 15:24:00
9:53 AM,23.0,19.9,88,29.82,0.2,SW,5.8,-,0.02,Fog-Snow,Heavy Snow,230,2013-02-05 15:53:00
10:22 AM,24.8,21.2,86,29.78,0.5,SW,8.1,-,0.02,Fog-Snow,Snow,230,2013-02-05 16:22:00
10:40 AM,24.8,21.2,86,29.79,0.8,SW,9.2,-,0.02,Snow,Light Snow,230,2013-02-05 16:40:00
10:53 AM,24.1,21.0,88,29.83,0.8,SW,5.8,-,0.02,Snow,Light Snow,220,2013-02-05 16:53:00
11:00 AM,24.8,21.2,86,29.80,1.0,SW,6.9,-,0.00,Snow,Light Snow,230,2013-02-05 17:00:00
11:11 AM,24.8,21.2,86,29.79,1.8,SW,8.1,-,0.00,Snow,Light Snow,220,2013-02-05 17:11:00
11:13 AM,24.8,21.2,86,29.79,2.0,SW,9.2,-,0.00,Snow,Light Snow,220,2013-02-05 17:13:00
11:17 AM,24.8,21.2,86,29.79,3.0,SW,9.2,-,0.00,Snow,Light Snow,230,2013-02-05 17:17:00
11:22 AM,26.6,21.2,80,29.79,1.8,SW,8.1,-,0.00,Snow,Light Snow,230,2013-02-05 17:22:00
11:40 AM,26.6,21.2,80,29.79,3.0,SW,6.9,-,0.00,Snow,Light Snow,220,2013-02-05 17:40:00
11:53 AM,27.0,23.0,85,29.84,5.0,SW,6.9,-,0.00,,Overcast,220,2013-02-05 17:53:00
12:53 PM,30.0,24.1,79,29.85,7.0,WSW,4.6,-,N/A,,Overcast,240,2013-02-05 18:53:00
1:53 PM,32.0,25.0,75,29.86,8.0,West,4.6,-,N/A,,Overcast,270,2013-02-05 19:53:00
2:53 PM,33.1,25.0,72,29.88,9.0,WNW,6.9,-,N/A,,Overcast,300,2013-02-05 20:53:00
3:53 PM,33.1,24.1,70,29.92,10.0,WNW,8.1,-,N/A,,Overcast,290,2013-02-05 21:53:00
4:53 PM,32.0,23.0,69,29.96,10.0,NNW,8.1,-,N/A,,Overcast,330,2013-02-05 22:53:00
5:53 PM,32.0,21.9,66,29.99,10.0,NW,6.9,-,N/A,,Overcast,320,2013-02-05 23:53:00
6:53 PM,30.9,21.9,69,30.02,10.0,NNW,4.6,-,N/A,,Overcast,330,2013-02-06 00:53:00
7:53 PM,30.0,19.9,66,30.05,10.0,NW,3.5,-,N/A,,Overcast,310,2013-02-06 01:53:00
8:53 PM,28.0,18.0,66,30.07,10.0,NNW,5.8,-,N/A,,Mostly Cloudy,340,2013-02-06 02:53:00
9:12 PM,26.6,17.6,69,30.05,10.0,North,4.6,-,N/A,,Partly Cloudy,360,2013-02-06 03:12:00
9:38 PM,24.8,17.6,74,30.07,10.0,NNW,3.5,-,N/A,,Mostly Cloudy,330,2013-02-06 03:38:00
9:53 PM,25.0,17.1,72,30.11,10.0,NNW,3.5,-,N/A,,Overcast,330,2013-02-06 03:53:00
10:23 PM,21.2,15.8,80,30.07,10.0,Calm,Calm,-,N/A,,Scattered Clouds,0,2013-02-06 04:23:00
10:53 PM,18.0,14.0,84,30.12,10.0,Calm,Calm,-,N/A,,Clear,0,2013-02-06 04:53:00
11:53 PM,15.1,10.9,84,30.15,8.0,Calm,Calm,-,N/A,,Clear,0,2013-02-06 05:53:00